Find Starlink 1605

NORAD ID: 46123 Int'l Des: 2020-057 Owner: SPXS Country: US Constellation: starlink decayed
LEOCIRCULAR

Re-entered — Feb 11, 2026

正在加载3D地球...

About Starlink 1605

Starlink 1605 (NORAD 46123) is a starlink constellation satellite (v1.0) launched Aug 18, 2020 by SPXS of US. It re-entered the atmosphere on Feb 11, 2026. with a mass of 260.00 kg.

高度历史

Loading altitude history...

两行轨道根数

1 46123U 20057G 26042.78550889 .14380811 12510-4 32957-3 0 9992
2 46123 53.0212 326.7721 0004033 246.2158 113.8469 16.46294808304925
Epoch: Feb 11, 2026 • Age: 5341 hours

当前状态

Position data unavailable
发射日期 Aug 18, 2020
运行时间 6 years
衰减日期 Feb 11, 2026
类型 internet

发射组

Falcon 9 • Launch 10 • 4 satellites

技术详情

分类 Payload
质量 260.00 kg
干质量 248.00 kg
长度 0.20 m
跨度 9.00 m
形状 ? Box + pan
制造商 SPXS
平台类型 Starlink
阶段状态 Unknown Transfer Status
所有者/国家 SPXS/US

Most Searched